CW7945 Weather Reports


time (UTC)temp
C
wind
direction
speed
KPH
gust
KPH
rain 1hr
cm
rain 24hr
cm
rain mn
cm
humidity
%
barometer
mb
20260505153016 26 270 3.2 12.9 0.00 0.00 0.00 47 1010.7
20260505152036 25 248 3.2 12.9 0.00 0.00 0.00 50 1010.7
20260505151037 25 270 1.6 12.9 0.00 0.00 0.00 49 1010.8
20260505124016 19 270 3.2 11.3 0.00 0.00 0.00 64 1011.6
20260505123016 19 293 1.6 11.3 0.00 0.00 0.00 64 1011.4
20260505122017 18 248 1.6 11.3 0.00 0.00 0.00 65 1011.2
20260505121016 18 270 1.6 12.9 0.00 0.00 0.00 69 1011.2
20260505120056 17 0.0 0.0 0.00 0.00 0.00 70 1011.2
20260505115016 17 0.0 0.0 0.00 0.00 0.00 72 1011.3
20260505114016 16 0.0 0.0 0.00 0.00 0.00 74 1011.3
20260505113016 15 0.0 0.0 0.00 0.00 0.00 77 1011.3
20260505112036 14 0.0 0.0 0.00 0.00 0.00 81 1011.1
20260505111016 13 0.0 0.0 0.00 0.00 0.00 84 1011.0
20260505102016 12 0.0 0.0 0.00 0.00 0.00 81 1010.8
20260505101016 13 0.0 0.0 0.00 0.00 0.00 79 1010.8
20260505100016 13 0.0 0.0 0.00 0.00 0.00 77 1010.7
20260505095016 13 0.0 0.0 0.00 0.00 0.00 77 1010.4
20260505094016 14 0.0 0.0 0.00 0.00 0.00 75 1010.5
20260505093016 14 0.0 0.0 0.00 0.00 0.00 75 1010.6
20260505092016 15 0.0 0.0 0.00 0.00 0.00 73 1010.5
20260505091016 15 0.0 0.0 0.00 0.00 0.00 72 1010.4
20260505090044 15 0.0 0.0 0.00 0.00 0.00 72 1010.2
20260505085016 15 0.0 0.0 0.00 0.00 0.00 71 1010.2
20260505084016 15 0.0 0.0 0.00 0.00 0.00 70 1010.2
20260505083016 16 0.0 0.0 0.00 0.00 0.00 70 1010.3
20260505082016 16 0.0 0.0 0.00 0.00 0.00 69 1010.3
20260505081016 16 0.0 0.0 0.00 0.00 0.00 69 1010.2
20260505080016 16 0.0 0.0 0.00 0.00 0.00 69 1010.4
20260505075016 16 0.0 0.0 0.00 0.00 0.00 69 1010.4
20260505074016 16 0.0 0.0 0.00 0.00 0.00 69 1010.5
20260505073016 16 0.0 0.0 0.00 0.00 0.00 68 1010.4
20260505072016 16 0.0 0.0 0.00 0.00 0.00 68 1010.3
20260505071036 16 0.0 0.0 0.00 0.00 0.00 68 1010.2
20260505070016 16 0.0 0.0 0.00 0.00 0.00 68 1010.3
20260505065036 16 0.0 0.0 0.00 0.00 0.00 66 1010.4
20260505064016 16 0.0 0.0 0.00 0.00 0.00 65 1010.4
20260505063016 16 0.0 0.0 0.00 0.00 0.00 65 1010.3
20260505062056 16 0.0 1.6 0.00 0.00 0.00 64 1010.3
20260505061016 16 0.0 4.8 0.00 0.00 0.00 64 1010.3
20260505060036 16 0.0 3.2 0.00 0.00 0.00 64 1010.3
20260505055057 16 0.0 6.4 0.00 0.00 0.00 63 1010.2
20260505054016 16 0.0 8.0 0.00 0.00 0.00 63 1010.2
20260505053016 16 0.0 6.4 0.00 0.00 0.00 63 1010.3
20260505052016 16 0.0 0.0 0.00 0.00 0.00 62 1010.4
20260505051016 16 0.0 0.0 0.00 0.00 0.00 61 1010.5
20260505041016 17 0.0 0.0 0.00 0.00 0.00 57 1010.3
20260505040016 17 0.0 0.0 0.00 0.00 0.00 56 1010.3
20260505035016 17 0.0 0.0 0.00 0.00 0.00 55 1010.3
20260505034016 17 0.0 3.2 0.00 0.00 0.00 55 1010.3
20260505033016 17 0.0 0.0 0.00 0.00 0.00 56 1010.3
20260505032016 16 0.0 0.0 0.00 0.00 0.00 56 1010.4
20260505031016 17 0.0 0.0 0.00 0.00 0.00 56 1010.3
20260505030016 17 0.0 0.0 0.00 0.00 0.00 56 1010.2
20260505025016 16 0.0 0.0 0.00 0.00 0.00 57 1010.5
20260505024016 16 0.0 0.0 0.00 0.00 0.00 58 1010.6
20260505023016 16 0.0 0.0 0.00 0.00 0.00 56 1010.6
20260505022016 17 0.0 0.0 0.00 0.00 0.00 55 1010.7
20260505021016 17 0.0 0.0 0.00 0.00 0.00 54 1010.6
20260505020016 17 0.0 0.0 0.00 0.00 0.00 53 1010.6
20260505015016 17 0.0 0.0 0.00 0.00 0.00 52 1010.6
20260505014016 17 0.0 0.0 0.00 0.00 0.00 52 1010.5
20260505013016 17 0.0 0.0 0.00 0.00 0.00 51 1010.6
20260505012036 18 0.0 0.0 0.00 0.00 0.00 50 1010.5
20260505011016 18 0.0 0.0 0.00 0.00 0.00 50 1010.3
20260505010016 18 0.0 0.0 0.00 0.00 0.00 49 1010.1
20260505005016 18 0.0 0.0 0.00 0.00 0.00 48 1010.0
20260505004016 19 0.0 0.0 0.00 0.00 0.00 46 1009.9
20260505003016 19 0.0 0.0 0.00 0.00 0.00 45 1009.9
20260505002016 20 0.0 0.0 0.00 0.00 0.00 44 1009.9
20260505001016 20 0.0 4.8 0.00 0.00 0.00 43 1009.7
20260505000016 20 0.0 3.2 0.00 0.00 0.00 43 1009.7
20260504235036 20 248 1.6 12.9 0.00 0.00 0.00 42 1009.6
20260504234016 21 225 1.6 14.5 0.00 0.00 0.00 41 1009.6
20260504233016 21 225 4.8 14.5 0.00 0.00 0.00 40 1009.4
20260504232016 21 225 1.6 9.7 0.00 0.00 0.00 40 1009.4
20260504231016 21 248 1.6 11.3 0.00 0.00 0.00 40 1009.2
20260504230016 21 248 3.2 12.9 0.00 0.00 0.00 39 1009.2
20260504225016 21 225 6.4 25.7 0.00 0.00 0.00 39 1009.1
20260504224016 21 248 4.8 20.9 0.00 0.00 0.00 40 1009.2
20260504223016 22 225 3.2 19.3 0.00 0.00 0.00 39 1009.3
20260504222036 22 225 4.8 17.7 0.00 0.00 0.00 39 1009.3
20260504221017 22 225 6.4 16.1 0.00 0.00 0.00 40 1009.4
20260504220016 22 0.0 8.0 0.00 0.00 0.00 40 1009.4
20260504215016 22 225 8.0 19.3 0.00 0.00 0.00 40 1009.4
20260504214016 22 248 3.2 14.5 0.00 0.00 0.00 39 1009.4
20260504213016 22 225 6.4 19.3 0.00 0.00 0.00 40 1009.5
20260504212016 22 225 4.8 19.3 0.00 0.00 0.00 39 1009.6
20260504211016 23 225 3.2 12.9 0.00 0.00 0.00 38 1009.5
20260504210016 22 0.0 6.4 0.00 0.00 0.00 39 1009.5
20260504205016 22 225 6.4 22.5 0.00 0.00 0.00 39 1009.6
20260504204016 22 248 4.8 16.1 0.00 0.00 0.00 39 1009.7
20260504203016 22 248 8.0 20.9 0.00 0.00 0.00 39 1009.7
20260504202036 22 248 1.6 6.4 0.00 0.00 0.00 38 1009.7
20260504201017 22 248 4.8 19.3 0.00 0.00 0.00 40 1009.8
20260504200016 22 248 1.6 20.9 0.00 0.00 0.00 39 1010.0
20260504195016 22 248 3.2 19.3 0.00 0.00 0.00 40 1010.0
20260504194016 22 248 4.8 24.1 0.00 0.00 0.00 39 1010.0
20260504193016 22 225 1.6 9.7 0.00 0.00 0.00 40 1010.1
20260504192036 22 225 6.4 25.7 0.00 0.00 0.00 39 1010.2
20260504191017 22 248 8.0 24.1 0.00 0.00 0.00 40 1010.2
20260504190016 21 225 6.4 22.5 0.00 0.00 0.00 39 1010.4
20260504185016 21 248 1.6 14.5 0.00 0.00 0.00 41 1010.6
20260504184016 21 248 1.6 11.3 0.00 0.00 0.00 39 1010.7
20260504183036 22 248 6.4 32.2 0.00 0.00 0.00 39 1010.9
20260504182016 22 248 1.6 16.1 0.00 0.00 0.00 41 1011.0
20260504181036 21 248 1.6 12.9 0.00 0.00 0.00 39 1011.0
20260504180016 21 293 1.6 16.1 0.00 0.00 0.00 41 1011.3
20260504175016 21 225 4.8 14.5 0.00 0.00 0.00 41 1011.5
20260504174016 21 248 3.2 19.3 0.00 0.00 0.00 40 1011.5
20260504173016 20 225 8.0 20.9 0.00 0.00 0.00 38 1011.7
20260504172016 20 225 4.8 20.9 0.00 0.00 0.00 39 1011.7
20260504171016 20 248 6.4 24.1 0.00 0.00 0.00 39 1012.0